sat.trackr.live / text

‹ back to catalog

STARLINK-36144

NORAD 67829 · 2026-033J

PAYLOAD ACTIVE UNKNOWN

§ Identity

Operator
Country
US
Launch date
2026-02-16
Launch site
AFETR
Launch vehicle
Mass (kg)
RCS (m²)

Purposes: comms

External: N2YO · Heavens-Above · Gunter

§ Orbital elements

Epoch: 2026-09-19T07:31:53.035392Z

Period
94.27 min
Inclination
43.0016°
Eccentricity
0.0001626
Mean motion
15.27567504 rev/d
Perigee alt
482.0 km
Apogee alt
484.2 km
Semi-major
6,861.2 km
B*
4.3152e-4
RAAN
253.8039°
Arg perigee
275.2887°
Mean anomaly
84.7780°
Rev number
3,428

§ Raw data

STARLINK-361441 67829U 26033J   26262.31380828  .00011627  00000+0  43152-3 0  99912 67829  43.0016 253.8039 0001626 275.2887  84.7780 15.27567504 34285

JSON: /api/v1/satellites/67829 · /tle

For live sub-satellite position, see the globe view (requires WebGL).

§ Visibility from observer

Set your observer location to see the next 7 days of passes ≥ 10°. The values pass through the URL so the page stays shareable.

No JS? Fill the form by hand. The geolocation button needs JavaScript.